WZZ24K EPGD-EPKK

Flight info

Callsign WZZ24K
Flight time N/A
Altitude 27000
Route IRLUN DCT PENEX N133 POLON DCT KUKAM
Aircraft A20N/M-SDE2E3FGHIRWXY/LB1

Departure

Time 2026-05-04 18:51
Airport Gdańsk Lech Wałęsa Airport (EPGD)

Arrival

Time N/A
Airport Kraków John Paul II International Airport (EPKK)
Time Latitude Longitude Altitude Speed Heading
2026-05-04 18:31 54.37926 18.47135 476 ft 0 kts 22°
2026-05-04 18:47 54.37936 18.47138 470 ft 3 kts 360°
2026-05-04 18:47 54.37967 18.47065 473 ft 12 kts 276°
2026-05-04 18:47 54.37896 18.46971 475 ft 17 kts 194°
2026-05-04 18:47 54.37836 18.47028 473 ft 16 kts 123°
2026-05-04 18:48 54.37788 18.47216 476 ft 18 kts 112°
2026-05-04 18:48 54.37737 18.47426 480 ft 20 kts 113°
2026-05-04 18:48 54.37663 18.47723 478 ft 21 kts 113°
2026-05-04 18:48 54.37602 18.47961 477 ft 22 kts 112°
2026-05-04 18:49 54.37542 18.48208 481 ft 23 kts 112°
2026-05-04 18:49 54.37499 18.48384 484 ft 24 kts 113°
2026-05-04 18:49 54.37428 18.48629 485 ft 22 kts 143°
2026-05-04 18:49 54.37384 18.48644 485 ft 0 kts 188°
2026-05-04 18:50 54.37382 18.48643 485 ft 2 kts 191°
2026-05-04 18:50 54.37338 18.48617 487 ft 12 kts 204°
2026-05-04 18:50 54.37286 18.48550 491 ft 4 kts 280°
2026-05-04 18:50 54.37290 18.48526 486 ft 0 kts 285°
2026-05-04 18:51 54.37340 18.48299 490 ft 62 kts 293°
2026-05-04 18:51 54.37606 18.47185 479 ft 137 kts 291°
2026-05-04 18:51 54.37991 18.45656 1226 ft 136 kts 292°
2026-05-04 18:52 54.38367 18.44151 2075 ft 141 kts 290°
2026-05-04 18:52 54.38752 18.42562 2832 ft 149 kts 290°
2026-05-04 18:52 54.39176 18.40837 3408 ft 164 kts 290°
2026-05-04 18:52 54.39607 18.38891 3870 ft 185 kts 278°
2026-05-04 18:53 54.39409 18.36644 4348 ft 207 kts 244°
2026-05-04 18:53 54.38344 18.34761 4925 ft 236 kts 213°
2026-05-04 18:53 54.36698 18.34003 5501 ft 265 kts 185°
2026-05-04 18:53 54.34846 18.34775 6405 ft 280 kts 158°
2026-05-04 18:54 54.33150 18.36426 7332 ft 285 kts 154°
2026-05-04 18:54 54.31382 18.38030 8248 ft 286 kts 160°
2026-05-04 18:54 54.29548 18.39273 9192 ft 285 kts 168°
2026-05-04 18:54 54.27638 18.40328 10130 ft 289 kts 167°
2026-05-04 18:55 54.25683 18.41443 10614 ft 309 kts 167°
2026-05-04 18:55 54.21327 18.43836 11518 ft 341 kts 167°
2026-05-04 18:55 54.19038 18.45067 12362 ft 345 kts 167°
2026-05-04 18:56 54.16732 18.46295 13190 ft 349 kts 167°
2026-05-04 18:56 54.14422 18.47517 13969 ft 353 kts 167°
2026-05-04 18:56 54.12042 18.48771 14686 ft 357 kts 167°
2026-05-04 18:56 54.09671 18.50018 15409 ft 361 kts 168°
2026-05-04 18:57 54.07252 18.51288 16092 ft 365 kts 168°
2026-05-04 18:57 54.04829 18.52558 16775 ft 369 kts 168°
2026-05-04 18:57 54.02351 18.53857 17457 ft 373 kts 168°
2026-05-04 18:57 53.99859 18.55162 18139 ft 378 kts 168°
2026-05-04 18:58 53.97324 18.56488 18743 ft 381 kts 168°
2026-05-04 18:58 53.94768 18.57824 19360 ft 384 kts 168°
2026-05-04 18:58 53.92218 18.59154 19933 ft 388 kts 168°
2026-05-04 18:58 53.89616 18.60509 20519 ft 391 kts 168°
2026-05-04 18:59 53.87013 18.61864 21106 ft 395 kts 168°
2026-05-04 18:59 53.84354 18.63245 21684 ft 399 kts 168°
2026-05-04 18:59 53.81713 18.64616 22250 ft 402 kts 168°
2026-05-04 18:59 53.79017 18.66013 22818 ft 406 kts 168°
2026-05-04 19:00 53.76289 18.67425 23368 ft 409 kts 168°
2026-05-04 19:00 53.73569 18.68831 23855 ft 413 kts 168°
2026-05-04 19:00 53.70800 18.70261 24329 ft 416 kts 168°
2026-05-04 19:00 53.68016 18.71698 24789 ft 419 kts 168°
2026-05-04 19:01 53.65239 18.73128 25231 ft 422 kts 168°
2026-05-04 19:01 53.62442 18.74566 25655 ft 425 kts 168°
2026-05-04 19:01 53.59595 18.76028 26085 ft 428 kts 168°
2026-05-04 19:01 53.56705 18.77509 26494 ft 431 kts 168°
2026-05-04 19:02 53.53852 18.78970 26847 ft 434 kts 168°
2026-05-04 19:02 53.50926 18.80466 26947 ft 435 kts 168°
2026-05-04 19:02 53.48052 18.81935 26944 ft 435 kts 168°
2026-05-04 19:02 53.45174 18.83403 26941 ft 435 kts 168°
2026-05-04 19:03 53.42250 18.84892 26944 ft 435 kts 168°
2026-05-04 19:03 53.39358 18.86361 26954 ft 435 kts 168°
2026-05-04 19:03 53.36482 18.87821 26950 ft 435 kts 168°
2026-05-04 19:03 53.33566 18.89299 26936 ft 435 kts 168°
2026-05-04 19:04 53.30683 18.90758 26933 ft 436 kts 168°
2026-05-04 19:04 53.27767 18.92231 26934 ft 436 kts 168°
2026-05-04 19:04 53.24879 18.93689 26940 ft 436 kts 168°
2026-05-04 19:04 53.21960 18.95160 26942 ft 436 kts 168°
2026-05-04 19:05 53.19035 18.96632 26945 ft 436 kts 168°
2026-05-04 19:05 53.16155 18.98080 26940 ft 436 kts 168°
2026-05-04 19:05 53.13243 18.99541 26931 ft 436 kts 167°
2026-05-04 19:05 53.10359 19.00987 26930 ft 436 kts 167°
2026-05-04 19:06 53.07441 19.02448 26934 ft 436 kts 167°
2026-05-04 19:06 53.04526 19.03905 26929 ft 436 kts 167°
2026-05-04 19:06 53.01641 19.05345 26930 ft 436 kts 167°
2026-05-04 19:06 52.98749 19.06787 26935 ft 436 kts 167°
2026-05-04 19:07 52.95815 19.08247 26933 ft 436 kts 167°
2026-05-04 19:07 52.92926 19.09683 26930 ft 436 kts 167°
2026-05-04 19:07 52.90041 19.11116 26932 ft 436 kts 167°
2026-05-04 19:07 52.87106 19.12570 26930 ft 436 kts 167°
2026-05-04 19:08 52.84217 19.14001 26931 ft 436 kts 167°
2026-05-04 19:08 52.81311 19.15437 26928 ft 436 kts 167°
2026-05-04 19:08 52.78394 19.16877 26931 ft 436 kts 167°
2026-05-04 19:08 52.75513 19.18297 26930 ft 436 kts 167°
2026-05-04 19:09 52.72596 19.19733 26926 ft 436 kts 167°
2026-05-04 19:09 52.69704 19.21155 26929 ft 436 kts 167°
2026-05-04 19:09 52.66795 19.22583 26927 ft 436 kts 167°
2026-05-04 19:09 52.63905 19.24000 26926 ft 436 kts 167°
2026-05-04 19:10 52.60980 19.25433 26925 ft 436 kts 167°
2026-05-04 19:10 52.58073 19.26854 26925 ft 436 kts 167°
2026-05-04 19:10 52.55179 19.28271 26926 ft 436 kts 167°
2026-05-04 19:10 52.52262 19.29731 26923 ft 436 kts 167°
2026-05-04 19:11 52.49390 19.31186 26925 ft 436 kts 167°
2026-05-04 19:11 52.46475 19.32663 26924 ft 436 kts 167°
2026-05-04 19:11 52.43564 19.34134 26921 ft 435 kts 167°
2026-05-04 19:11 52.40700 19.35575 26922 ft 435 kts 167°
2026-05-04 19:12 52.37785 19.37038 26919 ft 435 kts 167°
2026-05-04 19:12 52.31995 19.39935 26922 ft 435 kts 167°
2026-05-04 19:12 52.29117 19.41372 26923 ft 435 kts 167°
2026-05-04 19:13 52.26216 19.42819 26923 ft 436 kts 167°
2026-05-04 19:13 52.23296 19.44272 26922 ft 436 kts 167°
2026-05-04 19:13 52.20424 19.45701 26921 ft 436 kts 166°
2026-05-04 19:13 52.17513 19.47147 26923 ft 435 kts 166°
2026-05-04 19:14 52.14619 19.48582 26921 ft 435 kts 166°
2026-05-04 19:14 52.11727 19.50014 26926 ft 435 kts 166°
2026-05-04 19:14 52.08812 19.51445 26925 ft 435 kts 168°
2026-05-04 19:14 52.05888 19.52505 26926 ft 433 kts 172°
2026-05-04 19:15 52.02922 19.53514 26923 ft 433 kts 171°
2026-05-04 19:15 51.99955 19.54509 26938 ft 433 kts 172°
2026-05-04 19:15 51.97020 19.55453 26934 ft 433 kts 172°
2026-05-04 19:15 51.94050 19.56376 26923 ft 433 kts 173°
2026-05-04 19:16 51.91088 19.57277 26921 ft 433 kts 173°
2026-05-04 19:16 51.88144 19.58164 26937 ft 433 kts 173°
2026-05-04 19:16 51.85164 19.59058 26934 ft 433 kts 173°
2026-05-04 19:16 51.82231 19.59937 26933 ft 433 kts 173°
2026-05-04 19:17 51.79246 19.60830 26935 ft 433 kts 173°
2026-05-04 19:17 51.76296 19.61713 26935 ft 433 kts 172°
2026-05-04 19:17 51.73317 19.62603 26938 ft 433 kts 172°
2026-05-04 19:17 51.70369 19.63483 26931 ft 433 kts 172°
2026-05-04 19:18 51.67422 19.64361 26937 ft 433 kts 172°
2026-05-04 19:18 51.64436 19.65250 26934 ft 434 kts 172°
2026-05-04 19:18 51.61456 19.66136 26935 ft 433 kts 172°
2026-05-04 19:18 51.58509 19.67012 26934 ft 433 kts 172°
2026-05-04 19:19 51.55536 19.67894 26759 ft 430 kts 172°
2026-05-04 19:19 51.52614 19.68760 26317 ft 428 kts 172°
2026-05-04 19:19 51.49707 19.69620 25802 ft 425 kts 172°
2026-05-04 19:19 51.46797 19.70480 25245 ft 421 kts 172°
2026-05-04 19:20 51.43948 19.71320 24694 ft 418 kts 172°
2026-05-04 19:20 51.41089 19.72163 24147 ft 414 kts 172°
2026-05-04 19:20 51.38241 19.73000 23609 ft 411 kts 172°
2026-05-04 19:20 51.35462 19.73817 23023 ft 407 kts 172°
2026-05-04 19:21 51.32704 19.74627 22451 ft 403 kts 172°
2026-05-04 19:21 51.29948 19.75435 21874 ft 399 kts 172°
2026-05-04 19:21 51.27221 19.76234 21317 ft 395 kts 172°
2026-05-04 19:21 51.24553 19.77015 20773 ft 391 kts 172°
2026-05-04 19:22 51.21874 19.77798 20235 ft 387 kts 172°
2026-05-04 19:22 51.19248 19.78564 19706 ft 383 kts 173°
2026-05-04 19:22 51.16625 19.79328 19195 ft 380 kts 173°
2026-05-04 19:22 51.14067 19.80073 18692 ft 376 kts 173°
2026-05-04 19:23 51.11491 19.80822 18201 ft 372 kts 173°
2026-05-04 19:23 51.08945 19.81562 17636 ft 368 kts 173°
2026-05-04 19:23 51.06450 19.82285 17102 ft 365 kts 173°
2026-05-04 19:23 51.03978 19.83002 16573 ft 361 kts 173°
2026-05-04 19:24 51.01495 19.83720 16028 ft 358 kts 173°
2026-05-04 19:24 50.99061 19.84424 15509 ft 355 kts 173°
2026-05-04 19:24 50.96632 19.85125 14993 ft 352 kts 173°
2026-05-04 19:24 50.94249 19.85814 14511 ft 349 kts 173°
2026-05-04 19:25 50.91888 19.86494 14001 ft 347 kts 173°
2026-05-04 19:25 50.89515 19.87178 13486 ft 344 kts 173°
2026-05-04 19:25 50.87157 19.87855 12926 ft 342 kts 173°
2026-05-04 19:25 50.84814 19.88527 12387 ft 340 kts 173°
2026-05-04 19:26 50.82512 19.89187 11858 ft 338 kts 173°
2026-05-04 19:26 50.80222 19.89843 11344 ft 336 kts 173°
2026-05-04 19:26 50.77922 19.90502 10824 ft 334 kts 173°
2026-05-04 19:26 50.75635 19.91156 10361 ft 331 kts 173°
2026-05-04 19:27 50.69354 19.92961 9977 ft 291 kts 173°
2026-05-04 19:27 50.68709 19.93146 9935 ft 287 kts 173°